Location: College Park
(38.9810°N, 76.9370°W)
Time: 21:26:08
(UTC-05:00)

OTV 5 (USA 277) - Pass Details

Date: 04 January 2018
Orbit: 404 x 417 km, 43.0° (Epoch: 07 September)

Event Time Altitude Azimuth Distance (km) Brightness Sun altitude
Exits shadow 06:02:17 33° 326° (NW) 695 ? -16.0°
Maximum altitude 06:03:00 38° 358° (N) 626 ? -15.8°
Drops below altitude 10° 06:06:06 10° 69° (ENE) 1,457 ? -15.3°
Sets 06:08:17 0° 78° (ENE) 2,318 ? -14.9°
